#timestamp,LO_Frequency,Hit,StdDev 
1594659615.8,286046999.9,N
1594659635.6,286047000.3,N
1594659655.5,286047002.4,N
1594659675.3,286047001.5,N
1594659695.2,286047002.2,N
1594659715.9,286047001.5,N
1594659735.7,286047001.5,N
1594659755.6,286047002.7,N
1594659775.4,286047002.2,N
1594659795.3,286047003.8,Y
1594659815.1,286047001.7,P
1594659816.0,286047001.7,P
1594659835.8,286047002.8,P
1594659855.7,286047002.4,Y
1594659875.5,286047001.0,P
1594659895.3,286047001.0,N
1594659915.2,286046998.2,P
1594659935.0,286046998.1,N
1594659935.9,286046998.1,N
1594659955.8,286046998.3,N
1594659975.6,286046998.2,N
1594659995.4,286046998.3,N
1594660015.3,286046998.4,N
1594660035.1,286046998.9,N
1594660055.8,286046998.5,N
1594660075.7,286046998.7,N
1594660095.5,286046998.8,N
1594660115.4,286046998.4,N
1594660135.2,286046999.6,N
1594660155.0,286046999.1,N
1594660155.9,286046999.1,N
1594660175.8,286046999.5,N
1594660195.6,286046997.6,N
1594660215.4,286046997.3,N
1594660235.3,286046996.9,N
1594660255.1,286046997.0,N
1594660275.9,286046999.0,N
1594660295.7,286046999.4,N
1594660315.5,286046997.1,N
1594660335.4,286046997.2,N
1594660355.2,286046997.7,N
1594660375.0,286046997.1,N
1594660375.9,286046997.1,N
1594660395.8,286046999.4,N
1594660415.6,286046996.5,Y
1594660435.5,286046998.3,P
1594660455.3,286047001.1,P
1594660475.1,286047000.8,N
1594660495.9,286047000.0,N
1594660515.7,286047000.0,N
1594660535.5,286047000.0,N
1594660555.4,286047000.0,N
1594660575.2,286046999.8,N
1594660595.1,286047000.8,N
1594660596.0,286047000.8,N
1594660615.8,286047000.1,N
1594660635.6,286047000.6,N
1594660655.5,286047001.2,N
1594660675.3,286046999.8,N
1594660695.1,286047002.0,N
1594660715.9,286046999.8,N
1594660735.7,286046999.9,N
1594660755.5,286047000.5,N
1594660775.4,286046999.9,N
1594660795.2,286047000.7,N
1594660815.1,286047000.0,N
1594660816.0,286047000.0,N
1594660835.8,286046998.1,N
1594660855.6,286047000.6,N
1594660875.5,286047001.2,N
1594660895.3,286047000.4,N
1594660915.1,286047000.5,N
1594660935.9,286047000.6,N
1594660955.7,286047000.9,N
1594660975.6,286046999.9,N
1594660995.4,286047000.5,N
1594661015.2,286047000.0,N
1594661035.1,286047000.3,N
1594661036.0,286047000.3,N
1594661055.8,286047000.8,N
1594661075.7,286047000.2,N
1594661095.5,286047002.6,Y
1594661115.3,286047000.1,P
1594661135.2,286047002.4,P
1594661155.9,286047002.2,N
1594661175.7,286047000.1,N
1594661195.6,286047000.0,N
1594661215.4,286047000.7,N
1594661235.3,286047000.5,N
1594661255.1,286047000.5,N
1594661256.0,286047000.5,N
1594661275.8,286046998.1,N
1594661295.7,286047001.0,N
1594661315.5,286047000.9,N
1594661335.3,286047000.2,N
1594661355.2,286047000.4,N
1594661375.0,286047000.4,N
1594661375.9,286047000.4,N
1594661395.8,286046998.1,N
1594661415.6,286047000.8,N
1594661435.4,286047000.7,N
1594661455.3,286047000.5,N
1594661475.1,286047000.9,N
1594661495.9,286047000.4,N
1594661515.7,286047000.6,N
1594661535.5,286047000.8,N
1594661555.4,286046999.7,N
1594661575.2,286047000.0,N
1594661595.0,286046998.1,N
1594661595.9,286046998.1,N
1594661615.8,286047001.2,N
1594661635.6,286047000.8,N
1594661655.5,286047000.7,N
1594661675.3,286047001.1,N
1594661695.1,286046999.9,N
1594661715.9,286046999.8,N
1594661735.7,286047000.1,N
1594661755.5,286047000.1,N
1594661775.4,286047000.0,N
1594661795.2,286047000.9,N
1594661815.1,286047000.8,N
1594661816.0,286047000.8,N
1594661835.8,286047000.9,N
1594661855.6,286047000.7,N
1594661875.5,286046998.3,N
1594661895.3,286047001.0,N
1594661915.1,286046998.1,N
1594661935.9,286047000.7,N
1594661955.7,286046998.5,N
1594661975.6,286047000.0,N
1594661995.4,286046999.9,N
1594662015.2,286047002.8,N
1594662035.1,286047000.2,N
1594662036.0,286047000.2,N
1594662055.8,286047002.0,N
1594662075.7,286047004.4,Y
1594662095.5,286047003.5,P
1594662115.3,286047002.9,N
1594662135.2,286047007.6,P
1594662155.0,286047007.3,N
1594662155.9,286047007.3,N
1594662175.7,286047005.0,N
1594662195.6,286047003.4,N
1594662215.4,286047001.4,N
1594662235.3,286047011.9,Y
1594662255.1,286046999.6,P
1594662256.0,286046999.6,N
1594662275.8,286046996.5,N
1594662295.7,286046996.8,N
1594662315.5,286046996.7,N
1594662335.4,286046999.3,N
1594662355.2,286046996.9,N
1594662375.0,286046997.2,N
1594662375.9,286046997.2,N
1594662395.8,286046997.7,N
1594662415.6,286046997.9,N
1594662435.4,286046998.0,N
1594662455.3,286046996.1,N
1594662475.1,286046995.9,N
1594662495.9,286046994.2,N
1594662515.7,286046996.4,N
1594662535.5,286046994.0,N
1594662555.4,286046993.7,N
1594662575.2,286046996.1,N
1594662595.0,286046996.3,N
1594662595.9,286046996.3,N
1594662615.8,286046996.4,N
1594662635.6,286046996.1,N
1594662655.5,286046995.8,N
1594662675.3,286046995.8,N
1594662695.1,286046996.2,N
1594662715.9,286046996.3,N
1594662735.7,286046993.4,Y
1594662755.5,286047000.3,P
1594662775.4,286047003.8,N
1594662795.2,286047002.6,N
1594662815.1,286047002.6,N
1594662816.0,286047002.6,N
1594662835.8,286047002.7,N
1594662855.6,286047002.7,N
1594662875.5,286047002.8,N
1594662895.3,286046998.8,N
1594662915.2,286046999.6,N
1594662935.9,286046999.0,N
1594662955.7,286046998.5,N
1594662975.6,286046997.1,N
1594662995.4,286046997.1,N
1594663015.2,286046997.4,N
1594663035.1,286046997.7,N
1594663036.0,286046997.7,N
1594663055.8,286046997.7,N
1594663075.7,286046997.3,N
1594663095.5,286046997.8,N
1594663115.3,286046998.0,N
1594663135.2,286046997.7,N
1594663155.0,286046995.0,N
1594663155.9,286046995.0,N
1594663175.8,286046998.0,N
1594663195.6,286046997.8,N
